TimeMDT,TemperatureF,Dew PointF,Humidity,Sea Level PressureIn,VisibilityMPH,Wind Direction,Wind SpeedMPH,Gust SpeedMPH,PrecipitationIn,Events,Conditions,WindDirDegrees,DateUTC
12:53 AM,27.0,19.9,75,30.19,10.0,NW,3.5,-,N/A,,Clear,310,2013-10-16 06:53:00
1:53 AM,28.0,21.0,75,30.18,10.0,WNW,3.5,-,N/A,,Clear,300,2013-10-16 07:53:00
2:53 AM,28.9,21.9,75,30.16,10.0,NW,6.9,-,N/A,,Clear,310,2013-10-16 08:53:00
3:53 AM,27.0,21.0,78,30.13,10.0,WNW,4.6,-,N/A,,Clear,290,2013-10-16 09:53:00
4:53 AM,26.1,19.0,75,30.12,10.0,NW,3.5,-,N/A,,Clear,310,2013-10-16 10:53:00
5:53 AM,24.1,15.1,69,30.12,10.0,WNW,3.5,-,N/A,,Clear,290,2013-10-16 11:53:00
6:53 AM,23.0,12.9,65,30.12,10.0,WNW,3.5,-,N/A,,Clear,300,2013-10-16 12:53:00
7:53 AM,26.1,14.0,60,30.11,10.0,Calm,Calm,-,N/A,,Clear,0,2013-10-16 13:53:00
8:53 AM,36.0,10.0,34,30.07,10.0,West,3.5,-,N/A,,Clear,270,2013-10-16 14:53:00
9:53 AM,41.0,9.0,27,30.05,10.0,West,3.5,-,N/A,,Clear,270,2013-10-16 15:53:00
10:53 AM,46.0,9.0,22,30.02,10.0,Calm,Calm,-,N/A,,Clear,0,2013-10-16 16:53:00
11:53 AM,48.0,14.0,26,29.99,10.0,South,3.5,-,N/A,,Clear,180,2013-10-16 17:53:00
12:53 PM,48.9,17.1,28,29.98,10.0,Variable,4.6,-,N/A,,Clear,0,2013-10-16 18:53:00
1:53 PM,48.9,21.0,33,29.95,10.0,South,4.6,-,N/A,,Clear,190,2013-10-16 19:53:00
2:53 PM,50.0,23.0,35,29.94,10.0,ESE,6.9,-,N/A,,Clear,120,2013-10-16 20:53:00
3:53 PM,48.9,24.1,38,29.95,10.0,ENE,13.8,-,N/A,,Clear,70,2013-10-16 21:53:00
4:53 PM,48.0,8.1,20,29.96,10.0,West,9.2,-,N/A,,Clear,260,2013-10-16 22:53:00
5:53 PM,42.1,19.9,41,30.01,10.0,Calm,Calm,-,N/A,,Clear,0,2013-10-16 23:53:00
6:53 PM,39.9,19.0,43,30.03,10.0,WNW,5.8,-,N/A,,Clear,290,2013-10-17 00:53:00
7:53 PM,37.0,21.0,52,30.04,10.0,NW,3.5,-,N/A,,Clear,310,2013-10-17 01:53:00
8:53 PM,36.0,21.0,55,30.00,10.0,WNW,5.8,-,N/A,,Clear,290,2013-10-17 02:53:00
9:53 PM,36.0,21.9,57,29.99,10.0,Calm,Calm,-,N/A,,Clear,0,2013-10-17 03:53:00
10:53 PM,36.0,21.9,57,29.97,10.0,Calm,Calm,-,N/A,,Clear,0,2013-10-17 04:53:00
11:53 PM,35.1,24.1,64,29.96,10.0,WNW,4.6,-,N/A,,Clear,300,2013-10-17 05:53:00